Yakima, WA

3:01 AM PDT on June 22, 2018 (GMT -0700)
Yakima Air Term-McAllister

Weather History for KYKM - November, 2017

Change the Weather History Date:

Thursday, November 23, 2017

  Actual Average Record
Temperature  
Mean Temperature 52 °F 34 °F  
Max Temperature 69 °F 44 °F 69 °F (1959)
Min Temperature 35 °F 25 °F -13 °F (1985)
Degree Days  
Heating Degree Days 13 31  
Month to date heating degree days 527 606  
Since 1 July heating degree days 1088 1310  
Cooling Degree Days 0 0  
Month to date cooling degree days 0 0  
Year to date cooling degree days 1054 472  
Growing Degree Days 3 (Base 50)    
Moisture  
Dew Point 43 °F    
Average Humidity 70    
Maximum Humidity 93    
Minimum Humidity 46    
Precipitation  
Precipitation T in 0.04 in 0.76 in (1949)
Month to date precipitation 1.06 0.76  
Year to date precipitation 9.80 6.43  
Snow  
Snow 0.00 in 0.20 in 3.20 in (1996)
Month to date snowfall 0.4 2.0  
Year to date snowfall 29.5 10.7  
Since 1 July snowfall 0.4 2.1  
Snow Depth 0.00 in    
Sea Level Pressure  
Sea Level Pressure 29.82 in    
Wind  
Wind Speed 7 mph (West)    
Max Wind Speed 24 mph    
Max Gust Speed 32 mph    
Visibility 6 miles    
Events      
T = Trace of Precipitation, MM = Missing Value Source: NWS Daily Summary

Daily Weather History Graph

Daily Weather History Graph

Search for Another Location

Airport or City:

Astronomy

Nov. 23, 2017 Rise Set
Actual Time 7:15 AM PST 4:21 PM PST
Civil Twilight 6:42 AM PST 4:54 PM PST
Nautical Twilight 6:04 AM PST 5:32 PM PST
Astronomical Twilight 5:28 AM PST 6:08 PM PST
Moon 11:20 AM PST (11/23) 8:52 PM PST (11/23)
Length of Visible Light 10h 12m
Length of Day
9h 05m
Waxing Crescent, 24% of the Moon is Illuminated
Nov 23
Waxing Crescent
Nov 26
First Quarter
Dec 3
Full
Dec 9
Last Quarter
Dec 17
New

Hourly Weather History & Observations

Time (PST) Temp. Windchill Dew Point Humidity Pressure Visibility Wind Dir Wind Speed Gust Speed Precip Events Conditions
12:53 AM 48.9 °F - 46.0 °F 90% 29.87 in 4.0 mi SE 10.4 mph - N/A   Partly Cloudy
1:53 AM 52.0 °F - 48.0 °F 86% 29.86 in 9.0 mi ESE 4.6 mph - N/A   Clear
2:53 AM 50.0 °F - 46.9 °F 89% 29.86 in 6.0 mi NNW 8.1 mph - N/A   Mostly Cloudy
3:53 AM 48.9 °F - 46.0 °F 90% 29.85 in 5.0 mi Calm Calm - 0.00 in   Mostly Cloudy
4:53 AM 46.9 °F - 44.1 °F 90% 29.85 in 3.0 mi Calm Calm - N/A   Scattered Clouds
5:12 AM 45.0 °F 42.6 °F 43.0 °F 93% 29.84 in 2.0 mi NNW 4.6 mph - N/A   Partly Cloudy
5:31 AM 44.1 °F 40.8 °F 42.1 °F 93% 29.84 in 1.5 mi SSW 5.8 mph - N/A   Partly Cloudy
5:41 AM 44.1 °F - 42.1 °F 93% 29.83 in 1.5 mi Calm Calm - N/A   Scattered Clouds
5:53 AM 44.1 °F 41.5 °F 42.1 °F 93% 29.84 in 1.2 mi NW 4.6 mph - N/A   Mostly Cloudy
6:13 AM 45.0 °F 41.8 °F 43.0 °F 93% 29.82 in 2.5 mi SW 5.8 mph - N/A   Partly Cloudy
6:26 AM 43.0 °F - 42.1 °F 97% 29.82 in 0.8 mi Calm Calm - N/A   Clear
6:43 AM 45.0 °F 42.6 °F 44.1 °F 97% 29.81 in 2.0 mi Variable 4.6 mph - N/A   Scattered Clouds
6:51 AM 46.4 °F 45.2 °F 44.6 °F 93% 29.81 in 4.0 mi Variable 3.5 mph - N/A   Scattered Clouds
6:53 AM 46.0 °F 44.8 °F 44.1 °F 93% 29.82 in 3.0 mi WSW 3.5 mph - N/A   Scattered Clouds
7:08 AM 44.1 °F 41.5 °F 43.0 °F 96% 29.80 in 2.5 mi SW 4.6 mph - N/A   Scattered Clouds
7:19 AM 43.0 °F - 42.1 °F 97% 29.79 in 0.8 mi Calm Calm - N/A   Partly Cloudy
7:40 AM 44.1 °F - 42.1 °F 93% 29.79 in 1.5 mi Calm Calm - N/A   Partly Cloudy
7:49 AM 44.6 °F 43.1 °F 42.8 °F 93% 29.80 in 2.0 mi Variable 3.5 mph - N/A   Clear
7:53 AM 44.1 °F 42.5 °F 43.0 °F 96% 29.81 in 2.0 mi WNW 3.5 mph - N/A   Partly Cloudy
8:11 AM 45.0 °F 43.5 °F 43.0 °F 93% 29.79 in 6.0 mi Variable 3.5 mph - N/A   Scattered Clouds
8:53 AM 52.0 °F - 48.9 °F 89% 29.81 in 7.0 mi Calm Calm - N/A   Scattered Clouds
9:53 AM 63.0 °F - 52.0 °F 67% 29.75 in 10.0 mi SSW 13.8 mph 18.4 mph N/A   Clear
10:11 AM 64.9 °F - 52.0 °F 63% 29.75 in 10.0 mi SSW 15.0 mph 26.5 mph N/A   Clear
10:53 AM 66.9 °F - 52.0 °F 59% 29.73 in 10.0 mi SSW 19.6 mph 28.8 mph N/A   Scattered Clouds
11:53 AM 66.9 °F - 52.0 °F 59% 29.72 in 10.0 mi WSW 12.7 mph 19.6 mph 0.00 in   Overcast
12:53 PM 64.0 °F - 51.1 °F 63% 29.73 in 10.0 mi NNW 11.5 mph - 0.00 in   Mostly Cloudy
1:53 PM 64.0 °F - 46.9 °F 54% 29.71 in 10.0 mi NW 4.6 mph - 0.00 in   Partly Cloudy
2:53 PM 62.1 °F - 42.1 °F 48% 29.73 in 10.0 mi WNW 15.0 mph 31.1 mph N/A   Scattered Clouds
3:53 PM 60.1 °F - 39.9 °F 47% 29.79 in 10.0 mi WNW 17.3 mph 27.6 mph N/A   Scattered Clouds
4:53 PM 53.1 °F - 39.9 °F 61% 29.83 in 10.0 mi WNW 12.7 mph - N/A   Partly Cloudy
5:53 PM 52.0 °F - 37.0 °F 57% 29.86 in 10.0 mi WSW 4.6 mph - N/A   Clear
6:53 PM 48.9 °F - 34.0 °F 56% 29.86 in 10.0 mi West 8.1 mph - N/A   Clear
7:53 PM 46.9 °F - 35.1 °F 63% 29.89 in 10.0 mi Variable 3.5 mph - N/A   Clear
8:53 PM 42.1 °F 40.2 °F 32.0 °F 67% 29.90 in 10.0 mi WSW 3.5 mph - N/A   Clear
9:53 PM 43.0 °F 41.3 °F 30.9 °F 62% 29.93 in 10.0 mi NW 3.5 mph - N/A   Clear
10:53 PM 37.9 °F 34.4 °F 30.0 °F 73% 29.94 in 10.0 mi NNE 4.6 mph - N/A   Clear
11:53 PM 36.0 °F 29.6 °F 30.0 °F 79% 29.96 in 10.0 mi WNW 8.1 mph - N/A   Clear